Weather History for Aurora, OR

Change the Weather History Date:

Saturday, February 23, 2013

  Actual Average Record
Temperature  
Mean Temperature 42 °F -  
Max Temperature 49 °F - 66 °F (2005)
Min Temperature 36 °F - 29 °F (2014)
Degree Days  
Heating Degree Days 22    
Month to date heating degree days 496  
Since 1 July heating degree days 3026  
Cooling Degree Days 0    
Month to date cooling degree days 0  
Year to date cooling degree days 0  
Moisture  
Dew Point 36 °F    
Average Humidity 80    
Maximum Humidity 100    
Minimum Humidity 60    
Precipitation  
Precipitation 0.05 in - 1.00 in (2002)
Month to date precipitation 1.42  
Year to date precipitation 3.43  
Sea Level Pressure  
Sea Level Pressure 30.31 in    
Wind  
Wind Speed 5 mph (SW)    
Max Wind Speed 13 mph    
Max Gust Speed 17 mph    
Visibility 10 miles    
Events Rain    
T = Trace of Precipitation, MM = Missing Value Source: NWS Daily Summary

Daily Weather History Graph

Daily Weather History Graph

Search for Another Location

Airport:

Trip Planner

Search our weather history database for the weather conditions in past years. The results will help you decide how hot, cold, wet, or windy it might be!

Date:

Astronomy

Feb. 23, 2013 Rise Set
Actual Time 6:58 AM PST 5:50 PM PST
Civil Twilight 6:29 AM PST 6:20 PM PST
Nautical Twilight 5:54 AM PST 6:54 PM PST
Astronomical Twilight 5:20 AM PST 7:28 PM PST
Moon 4:03 PM PST (2/23) 5:28 AM PST (2/23)
Length of Visible Light 11h 51m
Length of Day
10h 51m
Waxing Gibbous, 96% of the Moon is Illuminated
Feb 23
Waxing Gibbous
Feb 25
Full
Mar 4
Last Quarter
Mar 11
New
Mar 19
First Quarter

Hourly Weather History & Observations

Time (PST) Temp. Windchill Dew Point Humidity Pressure Visibility Wind Dir Wind Speed Gust Speed Precip Events Conditions
12:53 AM 37.9 °F 33.5 °F 35.1 °F 89% 30.12 in 10.0 mi SSW 5.8 mph - N/A   Overcast
1:53 AM 37.9 °F 32.1 °F 35.1 °F 89% 30.14 in 10.0 mi SSW 8.1 mph - N/A   Overcast
2:53 AM 37.0 °F 30.4 °F 35.1 °F 93% 30.15 in 10.0 mi South 9.2 mph - N/A   Overcast
3:53 AM 37.9 °F 32.7 °F 35.1 °F 89% 30.17 in 10.0 mi SSW 6.9 mph - N/A   Overcast
4:04 AM 37.4 °F 31.4 °F 35.6 °F 93% 30.16 in 10.0 mi SSW 8.1 mph - N/A   Overcast
4:11 AM 37.4 °F 31.4 °F 35.6 °F 93% 30.16 in 10.0 mi SSW 8.1 mph - N/A   Overcast
4:53 AM 37.9 °F 32.1 °F 35.1 °F 89% 30.18 in 10.0 mi SSW 8.1 mph - N/A   Overcast
5:53 AM 37.0 °F 31.6 °F 35.1 °F 93% 30.21 in 10.0 mi SSW 6.9 mph - N/A   Overcast
6:53 AM 37.0 °F 31.6 °F 35.1 °F 93% 30.23 in 10.0 mi SW 6.9 mph - N/A   Overcast
7:53 AM 37.0 °F 30.4 °F 35.1 °F 93% 30.26 in 10.0 mi SSW 9.2 mph - N/A   Mostly Cloudy
8:53 AM 39.9 °F 35.1 °F 37.0 °F 89% 30.29 in 10.0 mi SW 6.9 mph - N/A   Mostly Cloudy
9:53 AM 39.9 °F 35.1 °F 36.0 °F 86% 30.32 in 10.0 mi SW 6.9 mph - N/A   Mostly Cloudy
10:18 AM 41.0 °F 36.4 °F 37.4 °F 87% 30.32 in 10.0 mi SSW 6.9 mph - N/A   Overcast
10:53 AM 43.0 °F 38.8 °F 37.0 °F 80% 30.33 in 10.0 mi SW 6.9 mph - N/A   Overcast
11:02 AM 42.8 °F 38.6 °F 37.4 °F 81% 30.33 in 10.0 mi SSW 6.9 mph - N/A   Overcast
11:22 AM 42.8 °F 38.0 °F 37.4 °F 81% 30.33 in 10.0 mi SSW 8.1 mph - N/A   Overcast
11:49 AM 42.8 °F 39.3 °F 37.4 °F 81% 30.34 in 10.0 mi SSW 5.8 mph - 0.00 in Rain Light Rain
11:53 AM 44.1 °F 40.8 °F 39.0 °F 82% 30.35 in 10.0 mi SW 5.8 mph - 0.00 in Rain Light Rain
12:23 PM 41.0 °F 39.0 °F 35.6 °F 81% 30.34 in 3.0 mi Variable 3.5 mph 16.1 mph 0.02 in Rain Rain
12:29 PM 41.0 °F 37.1 °F 35.6 °F 81% 30.34 in 2.0 mi NNW 5.8 mph - 0.04 in Rain Rain
12:39 PM 42.8 °F 40.1 °F 39.2 °F 87% 30.34 in 8.0 mi Variable 4.6 mph - 0.04 in Rain Light Rain
12:53 PM 45.0 °F 42.6 °F 39.9 °F 82% 30.34 in 10.0 mi Variable 4.6 mph - 0.04 in   Scattered Clouds
1:53 PM 46.9 °F - 36.0 °F 66% 30.33 in 10.0 mi WSW 8.1 mph - 0.01 in   Mostly Cloudy
2:53 PM 48.0 °F - 36.0 °F 63% 30.35 in 10.0 mi West 8.1 mph 16.1 mph N/A   Mostly Cloudy
3:53 PM 46.0 °F 43.1 °F 37.0 °F 71% 30.37 in 10.0 mi North 5.8 mph - N/A   Mostly Cloudy
4:53 PM 46.0 °F 43.9 °F 33.1 °F 61% 30.38 in 10.0 mi West 4.6 mph - N/A   Scattered Clouds
5:53 PM 44.1 °F 42.5 °F 34.0 °F 68% 30.40 in 10.0 mi West 3.5 mph - N/A   Overcast
6:53 PM 42.1 °F 40.2 °F 33.1 °F 70% 30.43 in 10.0 mi SSW 3.5 mph - N/A   Scattered Clouds
7:53 PM 42.1 °F - 35.1 °F 76% 30.44 in 10.0 mi Calm Calm - N/A   Overcast
8:53 PM 41.0 °F - 34.0 °F 76% 30.45 in 10.0 mi Calm Calm - N/A   Overcast
9:53 PM 39.0 °F - 34.0 °F 82% 30.45 in 10.0 mi Calm Calm - N/A   Scattered Clouds
10:53 PM 37.0 °F - 33.1 °F 86% 30.46 in 10.0 mi Calm Calm - N/A   Partly Cloudy
11:53 PM 36.0 °F - 34.0 °F 93% 30.47 in 10.0 mi Calm Calm - N/A   Overcast